| time (UTC) | temp F | wind direction | speed knots | gust knots | rain 1hr in | rain 24hr in | rain mn in | humidity % | barometer mb |
| 20260507191750 | 60 | 190 | 0.9 | 1.7 | 0.00 | 0.43 | 0.43 | 92 | 1014.8 |
| 20260507191247 | 60 | 194 | 3.5 | 3.5 | 0.00 | 0.43 | 0.43 | 92 | 1014.9 |
| 20260507190744 | 60 | 205 | 0.0 | 0.9 | 0.00 | 0.43 | 0.43 | 92 | 1014.8 |
| 20260507190243 | 60 | 162 | 1.7 | 1.7 | 0.00 | 0.43 | 0.43 | 92 | 1014.8 |
| 20260507185741 | 60 | 164 | 1.7 | 2.6 | 0.00 | 0.43 | 0.43 | 92 | 1014.8 |
| 20260507185237 | 60 | 116 | 1.7 | 2.6 | 0.00 | 0.43 | 0.43 | 92 | 1014.5 |
| 20260507184735 | 60 | 120 | 0.9 | 1.7 | 0.00 | 0.43 | 0.43 | 92 | 1014.7 |
| 20260507184233 | 60 | 239 | 0.0 | 0.9 | 0.00 | 0.43 | 0.43 | 92 | 1014.5 |
| 20260507183729 | 60 | 95 | 0.0 | 0.0 | 0.00 | 0.43 | 0.43 | 92 | 1014.4 |
| 20260507183226 | 60 | 199 | 0.0 | 0.0 | 0.00 | 0.43 | 0.43 | 92 | 1014.4 |
| 20260507182723 | 60 | 190 | 0.9 | 1.7 | 0.00 | 0.43 | 0.43 | 91 | 1014.3 |
| 20260507182218 | 60 | 116 | 1.7 | 2.6 | 0.00 | 0.43 | 0.43 | 91 | 1014.4 |
| 20260507181715 | 60 | 167 | 0.0 | 0.0 | 0.00 | 0.43 | 0.43 | 91 | 1014.2 |
| 20260507181212 | 60 | 121 | 1.7 | 2.6 | 0.00 | 0.43 | 0.43 | 91 | 1014.2 |
| 20260507180709 | 60 | 140 | 3.5 | 5.2 | 0.00 | 0.43 | 0.43 | 91 | 1014.1 |
| 20260507180206 | 60 | 181 | 0.9 | 0.9 | 0.00 | 0.43 | 0.43 | 90 | 1014.0 |
| 20260507175701 | 60 | 184 | 1.7 | 3.5 | 0.00 | 0.43 | 0.43 | 90 | 1014.2 |
| 20260507175158 | 61 | 132 | 1.7 | 2.6 | 0.00 | 0.43 | 0.43 | 89 | 1014.0 |
| 20260507174655 | 61 | 140 | 1.7 | 3.5 | 0.00 | 0.43 | 0.43 | 89 | 1013.8 |
| 20260507174154 | 61 | 142 | 1.7 | 2.6 | 0.00 | 0.43 | 0.43 | 88 | 1013.9 |
| 20260507173650 | 61 | 149 | 0.0 | 0.9 | 0.00 | 0.43 | 0.43 | 88 | 1013.8 |
| 20260507173147 | 61 | 142 | 0.9 | 1.7 | 0.00 | 0.43 | 0.43 | 88 | 1013.9 |
| 20260507172644 | 61 | 118 | 0.9 | 0.9 | 0.00 | 0.43 | 0.43 | 87 | 1013.9 |
| 20260507172141 | 62 | 115 | 2.6 | 2.6 | 0.00 | 0.43 | 0.43 | 87 | 1013.7 |
| 20260507171641 | 62 | 115 | 0.9 | 0.9 | 0.00 | 0.43 | 0.43 | 86 | 1013.7 |
| 20260507171139 | 62 | 140 | 2.6 | 3.5 | 0.00 | 0.43 | 0.43 | 86 | 1013.8 |
| 20260507170636 | 63 | 162 | 2.6 | 3.5 | 0.00 | 0.43 | 0.43 | 85 | 1014.0 |
| 20260507170133 | 63 | 183 | 1.7 | 1.7 | 0.00 | 0.43 | 0.43 | 84 | 1013.9 |
| 20260507165628 | 63 | 170 | 2.6 | 3.5 | 0.00 | 0.43 | 0.43 | 84 | 1013.9 |
| 20260507165125 | 63 | 193 | 3.5 | 5.2 | 0.00 | 0.43 | 0.43 | 85 | 1013.9 |
| 20260507164620 | 63 | 88 | 2.6 | 2.6 | 0.00 | 0.43 | 0.43 | 85 | 1013.6 |
| 20260507164118 | 63 | 170 | 1.7 | 2.6 | 0.00 | 0.43 | 0.43 | 85 | 1013.6 |
| 20260507163615 | 63 | 121 | 3.5 | 5.2 | 0.00 | 0.43 | 0.43 | 85 | 1013.6 |
| 20260507163113 | 63 | 91 | 3.5 | 5.2 | 0.00 | 0.43 | 0.43 | 84 | 1013.5 |
| 20260507162608 | 64 | 175 | 3.5 | 3.5 | 0.00 | 0.43 | 0.43 | 83 | 1013.5 |
| 20260507162105 | 64 | 221 | 0.9 | 1.7 | 0.00 | 0.43 | 0.43 | 83 | 1013.8 |
| 20260507161601 | 64 | 225 | 3.5 | 5.2 | 0.00 | 0.43 | 0.43 | 82 | 1013.6 |
| 20260507161057 | 64 | 100 | 3.5 | 3.5 | 0.00 | 0.43 | 0.43 | 82 | 1013.5 |
| 20260507160554 | 64 | 155 | 4.3 | 7.8 | 0.00 | 0.43 | 0.43 | 82 | 1013.5 |
| 20260507160050 | 64 | 160 | 0.9 | 1.7 | 0.00 | 0.43 | 0.43 | 82 | 1013.7 |
| 20260507155546 | 65 | 171 | 5.2 | 7.8 | 0.00 | 0.43 | 0.43 | 81 | 1013.7 |
| 20260507155043 | 64 | 195 | 3.5 | 5.2 | 0.00 | 0.43 | 0.43 | 81 | 1013.8 |
| 20260507154540 | 65 | 130 | 2.6 | 3.5 | 0.00 | 0.43 | 0.43 | 81 | 1013.6 |
| 20260507154037 | 64 | 228 | 1.7 | 2.6 | 0.00 | 0.43 | 0.43 | 81 | 1013.8 |
| 20260507153534 | 65 | 193 | 1.7 | 2.6 | 0.00 | 0.43 | 0.43 | 81 | 1013.8 |
| 20260507153030 | 65 | 172 | 1.7 | 2.6 | 0.00 | 0.43 | 0.43 | 80 | 1013.6 |
| 20260507152526 | 64 | 134 | 0.9 | 0.9 | 0.00 | 0.43 | 0.43 | 81 | 1013.6 |
| 20260507152022 | 65 | 168 | 2.6 | 6.1 | 0.00 | 0.43 | 0.43 | 80 | 1013.5 |
| 20260507151519 | 67 | 109 | 2.6 | 2.6 | 0.00 | 0.43 | 0.43 | 77 | 1013.5 |
| 20260507151016 | 67 | 82 | 1.7 | 1.7 | 0.00 | 0.43 | 0.43 | 77 | 1013.6 |
| 20260507150513 | 66 | 350 | 0.0 | 0.0 | 0.00 | 0.43 | 0.43 | 77 | 1013.6 |
| 20260507150009 | 67 | 305 | 0.9 | 1.7 | 0.00 | 0.43 | 0.43 | 77 | 1013.7 |
| 20260507145504 | 67 | 133 | 3.5 | 5.2 | 0.00 | 0.43 | 0.43 | 75 | 1013.8 |
| 20260507145002 | 66 | 102 | 0.9 | 0.9 | 0.00 | 0.43 | 0.43 | 77 | 1013.7 |
| 20260507144459 | 65 | 177 | 0.9 | 0.9 | 0.00 | 0.43 | 0.43 | 77 | 1013.8 |
| 20260507143955 | 66 | 117 | 4.3 | 5.2 | 0.00 | 0.43 | 0.43 | 77 | 1013.7 |
| 20260507143453 | 67 | 127 | 3.5 | 3.5 | 0.00 | 0.43 | 0.43 | 76 | 1013.8 |
| 20260507142950 | 67 | 217 | 1.7 | 2.6 | 0.00 | 0.43 | 0.43 | 75 | 1013.7 |
| 20260507142445 | 66 | 214 | 0.9 | 0.9 | 0.00 | 0.43 | 0.43 | 78 | 1013.7 |
| 20260507141943 | 67 | 50 | 1.7 | 2.6 | 0.00 | 0.43 | 0.43 | 76 | 1013.5 |
| 20260507141438 | 66 | 231 | 3.5 | 5.2 | 0.00 | 0.43 | 0.43 | 77 | 1013.7 |
| 20260507140936 | 66 | 245 | 1.7 | 1.7 | 0.00 | 0.43 | 0.43 | 77 | 1013.6 |
| 20260507140432 | 67 | 217 | 1.7 | 2.6 | 0.00 | 0.43 | 0.43 | 77 | 1013.6 |
| 20260507135930 | 68 | 153 | 2.6 | 3.5 | 0.00 | 0.43 | 0.43 | 74 | 1013.7 |
| 20260507135427 | 68 | 281 | 0.9 | 1.7 | 0.00 | 0.43 | 0.43 | 75 | 1013.8 |
| 20260507134924 | 68 | 307 | 0.0 | 0.0 | 0.00 | 0.43 | 0.43 | 76 | 1013.5 |
| 20260507134420 | 67 | 293 | 0.0 | 0.9 | 0.00 | 0.43 | 0.43 | 77 | 1013.7 |
| 20260507133916 | 66 | 268 | 0.0 | 0.9 | 0.00 | 0.43 | 0.43 | 78 | 1013.7 |
| 20260507133412 | 65 | 289 | 1.7 | 2.6 | 0.00 | 0.43 | 0.43 | 79 | 1013.8 |
| 20260507132911 | 64 | 240 | 1.7 | 2.6 | 0.00 | 0.43 | 0.43 | 80 | 1013.8 |
| 20260507132407 | 63 | 152 | 2.6 | 2.6 | 0.00 | 0.43 | 0.43 | 82 | 1013.8 |
| 20260507131905 | 63 | 132 | 5.2 | 6.1 | 0.00 | 0.43 | 0.43 | 82 | 1013.9 |
| 20260507131401 | 63 | 108 | 3.5 | 3.5 | 0.00 | 0.43 | 0.43 | 82 | 1013.8 |
| 20260507130858 | 63 | 139 | 0.9 | 0.9 | 0.00 | 0.43 | 0.43 | 82 | 1013.9 |
| 20260507130354 | 63 | 171 | 2.6 | 3.5 | 0.00 | 0.43 | 0.43 | 82 | 1014.0 |
| 20260507125853 | 63 | 114 | 4.3 | 6.1 | 0.00 | 0.43 | 0.43 | 81 | 1013.9 |
| 20260507125350 | 64 | 84 | 4.3 | 6.1 | 0.00 | 0.43 | 0.43 | 80 | 1013.9 |
| 20260507124848 | 64 | 174 | 3.5 | 3.5 | 0.00 | 0.43 | 0.43 | 79 | 1013.9 |
| 20260507124343 | 64 | 99 | 5.2 | 7.0 | 0.00 | 0.43 | 0.43 | 80 | 1014.0 |
| 20260507123843 | 64 | 175 | 3.5 | 6.1 | 0.00 | 0.43 | 0.43 | 80 | 1013.9 |
| 20260507123339 | 63 | 296 | 2.6 | 3.5 | 0.00 | 0.43 | 0.43 | 82 | 1013.7 |
| 20260507122836 | 62 | 191 | 1.7 | 2.6 | 0.00 | 0.43 | 0.43 | 83 | 1013.9 |
| 20260507122331 | 63 | 207 | 3.5 | 3.5 | 0.00 | 0.43 | 0.43 | 83 | 1014.0 |
| 20260507121828 | 64 | 158 | 3.5 | 6.1 | 0.00 | 0.43 | 0.43 | 82 | 1013.9 |
| 20260507121323 | 64 | 166 | 3.5 | 5.2 | 0.00 | 0.43 | 0.43 | 81 | 1013.8 |
| 20260507120820 | 64 | 182 | 3.5 | 6.1 | 0.00 | 0.43 | 0.43 | 81 | 1013.8 |
| 20260507120316 | 64 | 165 | 5.2 | 7.0 | 0.00 | 0.43 | 0.43 | 81 | 1014.0 |
| 20260507115813 | 64 | 106 | 5.2 | 7.0 | 0.00 | 0.43 | 0.43 | 81 | 1013.9 |
| 20260507115308 | 62 | 146 | 3.5 | 6.1 | 0.00 | 0.43 | 0.43 | 83 | 1014.1 |
| 20260507114804 | 62 | 148 | 3.5 | 6.1 | 0.00 | 0.43 | 0.43 | 85 | 1014.0 |
| 20260507114302 | 62 | 123 | 3.5 | 5.2 | 0.00 | 0.43 | 0.43 | 85 | 1014.0 |
| 20260507113759 | 61 | 150 | 4.3 | 7.0 | 0.00 | 0.43 | 0.43 | 86 | 1014.1 |
| 20260507113256 | 62 | 101 | 2.6 | 3.5 | 0.00 | 0.43 | 0.43 | 86 | 1013.8 |
| 20260507112754 | 63 | 139 | 5.2 | 7.0 | 0.00 | 0.43 | 0.43 | 84 | 1013.9 |
| 20260507112250 | 63 | 147 | 4.3 | 7.0 | 0.00 | 0.43 | 0.43 | 83 | 1014.0 |
| 20260507111748 | 63 | 150 | 7.0 | 11.3 | 0.00 | 0.43 | 0.43 | 83 | 1013.9 |
| 20260507111244 | 63 | 95 | 3.5 | 6.1 | 0.00 | 0.43 | 0.43 | 84 | 1013.9 |
| 20260507110741 | 62 | 164 | 7.0 | 9.6 | 0.00 | 0.43 | 0.43 | 85 | 1014.0 |
| 20260507110237 | 62 | 256 | 1.7 | 2.6 | 0.00 | 0.43 | 0.43 | 85 | 1013.9 |
| 20260507105734 | 62 | 135 | 7.8 | 11.3 | 0.00 | 0.43 | 0.43 | 86 | 1014.3 |
| 20260507105230 | 62 | 149 | 4.3 | 7.8 | 0.00 | 0.43 | 0.43 | 86 | 1014.0 |
| 20260507104727 | 62 | 133 | 5.2 | 7.8 | 0.00 | 0.43 | 0.43 | 86 | 1014.0 |
| 20260507104224 | 62 | 203 | 5.2 | 7.0 | 0.00 | 0.43 | 0.43 | 85 | 1014.0 |
| 20260507103720 | 62 | 127 | 3.5 | 5.2 | 0.00 | 0.43 | 0.43 | 86 | 1014.2 |
| 20260507103216 | 62 | 129 | 6.1 | 7.0 | 0.00 | 0.43 | 0.43 | 86 | 1014.1 |
| 20260507102713 | 61 | 141 | 5.2 | 8.7 | 0.00 | 0.43 | 0.43 | 87 | 1013.9 |
| 20260507102210 | 61 | 140 | 4.3 | 7.8 | 0.00 | 0.43 | 0.43 | 88 | 1014.0 |
| 20260507101706 | 60 | 175 | 3.5 | 6.1 | 0.00 | 0.43 | 0.43 | 89 | 1014.0 |
| 20260507101201 | 60 | 193 | 5.2 | 8.7 | 0.00 | 0.43 | 0.43 | 89 | 1014.0 |
| 20260507100659 | 60 | 202 | 5.2 | 7.0 | 0.00 | 0.43 | 0.43 | 89 | 1014.0 |
| 20260507100157 | 60 | 148 | 6.1 | 7.8 | 0.00 | 0.43 | 0.43 | 90 | 1014.0 |
| 20260507095655 | 59 | 152 | 1.7 | 1.7 | 0.00 | 0.43 | 0.43 | 90 | 1014.0 |
| 20260507095151 | 59 | 152 | 3.5 | 5.2 | 0.00 | 0.43 | 0.43 | 91 | 1013.8 |
| 20260507094647 | 59 | 129 | 4.3 | 9.6 | 0.00 | 0.43 | 0.43 | 91 | 1014.0 |
| 20260507094144 | 59 | 125 | 5.2 | 7.0 | 0.00 | 0.43 | 0.43 | 92 | 1013.9 |
| 20260507093642 | 59 | 142 | 4.3 | 6.1 | 0.00 | 0.43 | 0.43 | 93 | 1013.8 |
| 20260507093141 | 58 | 158 | 3.5 | 3.5 | 0.00 | 0.43 | 0.43 | 93 | 1013.9 |
| 20260507092637 | 58 | 161 | 5.2 | 7.8 | 0.00 | 0.43 | 0.43 | 94 | 1013.7 |
| 20260507092133 | 58 | 155 | 3.5 | 5.2 | 0.00 | 0.43 | 0.43 | 94 | 1013.8 |
| 20260507091630 | 58 | 189 | 2.6 | 3.5 | 0.00 | 0.43 | 0.43 | 95 | 1013.8 |
| 20260507091126 | 58 | 158 | 5.2 | 7.8 | 0.00 | 0.43 | 0.43 | 95 | 1013.8 |
| 20260507090622 | 58 | 108 | 4.3 | 7.0 | 0.00 | 0.43 | 0.43 | 95 | 1013.7 |
| 20260507090119 | 58 | 188 | 4.3 | 6.1 | 0.00 | 0.43 | 0.43 | 96 | 1013.6 |
| 20260507085616 | 58 | 106 | 4.3 | 7.0 | 0.00 | 0.43 | 0.43 | 96 | 1013.8 |
| 20260507085112 | 58 | 106 | 3.5 | 3.5 | 0.00 | 0.43 | 0.43 | 96 | 1013.7 |
| 20260507084609 | 58 | 140 | 1.7 | 1.7 | 0.00 | 0.43 | 0.43 | 96 | 1013.5 |
| 20260507084106 | 58 | 163 | 5.2 | 7.0 | 0.00 | 0.43 | 0.43 | 96 | 1013.7 |
| 20260507083603 | 57 | 212 | 1.7 | 3.5 | 0.00 | 0.43 | 0.43 | 97 | 1013.7 |
| 20260507083100 | 57 | 132 | 4.3 | 6.1 | 0.00 | 0.43 | 0.43 | 97 | 1013.6 |
| 20260507082555 | 57 | 110 | 7.8 | 12.2 | 0.00 | 0.43 | 0.43 | 97 | 1013.6 |
| 20260507082052 | 58 | 165 | 7.0 | 9.6 | 0.00 | 0.43 | 0.43 | 97 | 1013.6 |
| 20260507081548 | 58 | 149 | 5.2 | 11.3 | 0.00 | 0.43 | 0.43 | 97 | 1013.6 |
| 20260507081046 | 58 | 131 | 1.7 | 3.5 | 0.00 | 0.43 | 0.43 | 97 | 1013.7 |
| 20260507080541 | 58 | 80 | 4.3 | 7.0 | 0.00 | 0.43 | 0.43 | 97 | 1013.6 |
| 20260507080038 | 58 | 187 | 4.3 | 7.0 | 0.00 | 0.43 | 0.43 | 97 | 1013.6 |
| 20260507075533 | 58 | 181 | 2.6 | 3.5 | 0.00 | 0.43 | 0.43 | 97 | 1013.7 |
| 20260507075030 | 57 | 159 | 3.5 | 5.2 | 0.00 | 0.43 | 0.43 | 97 | 1013.5 |
| 20260507074526 | 57 | 167 | 1.7 | 3.5 | 0.00 | 0.43 | 0.43 | 97 | 1013.5 |
| 20260507074025 | 57 | 191 | 1.7 | 2.6 | 0.00 | 0.43 | 0.43 | 97 | 1013.4 |
| 20260507073521 | 57 | 160 | 5.2 | 6.1 | 0.00 | 0.43 | 0.43 | 97 | 1013.3 |
| 20260507073018 | 57 | 201 | 7.8 | 11.3 | 0.00 | 0.43 | 0.43 | 97 | 1013.4 |
| 20260507072515 | 57 | 164 | 4.3 | 6.1 | 0.00 | 0.43 | 0.43 | 97 | 1013.4 |
| 20260507072012 | 57 | 195 | 5.2 | 7.0 | 0.00 | 0.43 | 0.43 | 97 | 1013.3 |
| 20260507071509 | 57 | 148 | 5.2 | 7.0 | 0.00 | 0.43 | 0.43 | 97 | 1013.3 |
| 20260507071006 | 57 | 191 | 8.7 | 9.6 | 0.00 | 0.43 | 0.43 | 97 | 1013.2 |
| 20260507070503 | 57 | 135 | 3.5 | 5.2 | 0.00 | 0.43 | 0.43 | 97 | 1013.1 |
| 20260507070000 | 57 | 163 | 1.7 | 6.1 | 0.00 | 0.43 | 0.43 | 97 | 1013.1 |
| 20260507065456 | 57 | 107 | 7.0 | 12.2 | 0.00 | 0.43 | 0.43 | 97 | 1012.8 |
| 20260507064954 | 57 | 176 | 2.6 | 3.5 | 0.00 | 0.43 | 0.43 | 97 | 1012.9 |
| 20260507064452 | 57 | 166 | 3.5 | 6.1 | 0.00 | 0.43 | 0.43 | 97 | 1012.9 |
| 20260507063949 | 57 | 96 | 7.8 | 11.3 | 0.00 | 0.43 | 0.43 | 97 | 1012.8 |
| 20260507063446 | 57 | 132 | 1.7 | 3.5 | 0.00 | 0.43 | 0.43 | 97 | 1012.9 |
| 20260507062943 | 57 | 115 | 2.6 | 2.6 | 0.00 | 0.43 | 0.43 | 97 | 1012.8 |
| 20260507062441 | 57 | 223 | 4.3 | 6.1 | 0.00 | 0.43 | 0.43 | 97 | 1012.9 |
| 20260507061938 | 57 | 141 | 0.9 | 1.7 | 0.00 | 0.43 | 0.43 | 97 | 1012.8 |
| 20260507061436 | 57 | 172 | 3.5 | 6.1 | 0.00 | 0.43 | 0.43 | 97 | 1012.9 |
| 20260507060934 | 57 | 186 | 6.1 | 8.7 | 0.00 | 0.43 | 0.43 | 97 | 1012.8 |
| 20260507060430 | 57 | 123 | 3.5 | 6.1 | 0.00 | 0.43 | 0.43 | 97 | 1012.7 |
| 20260507055927 | 57 | 142 | 3.5 | 5.2 | 0.07 | 0.43 | 0.43 | 97 | 1012.6 |
| 20260507055422 | 57 | 70 | 3.5 | 6.1 | 0.07 | 0.43 | 0.43 | 97 | 1012.7 |
| 20260507054920 | 57 | 156 | 3.5 | 6.1 | 0.00 | 0.42 | 0.42 | 97 | 1012.6 |
| 20260507054415 | 57 | 155 | 2.6 | 2.6 | 0.07 | 0.42 | 0.42 | 97 | 1012.8 |
| 20260507053913 | 57 | 140 | 2.6 | 3.5 | 0.07 | 0.42 | 0.42 | 97 | 1012.7 |
| 20260507053410 | 57 | 106 | 4.3 | 5.2 | 0.00 | 0.41 | 0.41 | 97 | 1012.5 |
| 20260507052909 | 57 | 186 | 4.3 | 6.1 | 0.00 | 0.41 | 0.41 | 97 | 1012.5 |
| 20260507052406 | 57 | 130 | 2.6 | 3.5 | 0.00 | 0.41 | 0.41 | 97 | 1012.6 |
| 20260507051903 | 57 | 118 | 3.5 | 5.2 | 0.00 | 0.41 | 0.41 | 97 | 1012.7 |
| 20260507051401 | 57 | 78 | 2.6 | 3.5 | 0.00 | 0.41 | 0.41 | 97 | 1012.5 |
| 20260507050857 | 57 | 148 | 0.9 | 1.7 | 0.00 | 0.41 | 0.41 | 97 | 1012.4 |
| 20260507050354 | 57 | 305 | 0.0 | 0.0 | 0.00 | 0.41 | 0.41 | 97 | 1012.4 |
| 20260507045851 | 57 | 85 | 0.0 | 0.0 | 0.05 | 0.41 | 0.41 | 97 | 1012.4 |
| 20260507045347 | 57 | 22 | 0.0 | 0.0 | 0.05 | 0.41 | 0.41 | 97 | 1012.4 |
| 20260507044845 | 57 | 88 | 0.9 | 0.9 | 0.31 | 0.40 | 0.40 | 97 | 1012.5 |
| 20260507044341 | 57 | 144 | 2.6 | 2.6 | 0.31 | 0.40 | 0.40 | 97 | 1012.3 |
| 20260507043837 | 57 | 87 | 1.7 | 2.6 | 0.12 | 0.36 | 0.36 | 97 | 1012.3 |
| 20260507043334 | 57 | 121 | 1.7 | 2.6 | 0.12 | 0.35 | 0.35 | 97 | 1012.2 |
| 20260507042830 | 57 | 128 | 3.5 | 6.1 | 0.07 | 0.34 | 0.34 | 96 | 1011.8 |
| 20260507042326 | 57 | 146 | 3.5 | 6.1 | 0.05 | 0.33 | 0.33 | 96 | 1012.1 |
| 20260507041823 | 57 | 192 | 2.6 | 3.5 | 0.12 | 0.33 | 0.33 | 96 | 1011.9 |
| 20260507041319 | 57 | 170 | 1.7 | 3.5 | 0.07 | 0.32 | 0.32 | 96 | 1011.9 |
| 20260507040816 | 57 | 89 | 5.2 | 7.0 | 0.12 | 0.31 | 0.31 | 96 | 1011.9 |
| 20260507040312 | 57 | 140 | 5.2 | 7.0 | 0.12 | 0.31 | 0.31 | 96 | 1011.9 |
| 20260507035808 | 57 | 114 | 4.3 | 7.8 | 0.00 | 0.29 | 0.29 | 96 | 1011.7 |
| 20260507035306 | 57 | 130 | 4.3 | 6.1 | 0.07 | 0.29 | 0.29 | 96 | 1011.8 |
| 20260507034802 | 57 | 175 | 3.5 | 6.1 | 0.07 | 0.29 | 0.29 | 96 | 1011.7 |
| 20260507034258 | 57 | 172 | 5.2 | 7.0 | 0.05 | 0.28 | 0.28 | 96 | 1011.9 |
| 20260507033757 | 57 | 173 | 1.7 | 2.6 | 0.05 | 0.28 | 0.28 | 95 | 1011.9 |
| 20260507033254 | 57 | 155 | 3.5 | 5.2 | 0.00 | 0.27 | 0.27 | 95 | 1011.8 |
| 20260507032751 | 57 | 220 | 3.5 | 6.1 | 0.00 | 0.27 | 0.27 | 95 | 1011.9 |
| 20260507032247 | 58 | 175 | 0.0 | 0.9 | 0.00 | 0.27 | 0.27 | 95 | 1012.1 |
| 20260507031743 | 58 | 183 | 0.9 | 1.7 | 0.07 | 0.27 | 0.27 | 94 | 1012.1 |
| 20260507031241 | 58 | 136 | 1.7 | 2.6 | 0.61 | 0.27 | 0.27 | 94 | 1012.1 |
| 20260507030737 | 58 | 177 | 0.9 | 0.9 | 0.97 | 0.27 | 0.27 | 94 | 1012.1 |
| 20260507030235 | 58 | 211 | 0.0 | 0.9 | 0.97 | 0.19 | 0.19 | 93 | 1012.2 |
| 20260507025732 | 58 | 322 | 1.7 | 5.2 | 0.61 | 0.10 | 0.10 | 92 | 1012.1 |
| 20260507025229 | 58 | 268 | 2.6 | 3.5 | 0.19 | 0.03 | 0.03 | 91 | 1011.9 |
| 20260507024727 | 58 | 290 | 0.9 | 1.7 | 0.00 | 0.00 | 0.00 | 91 | 1011.9 |
| 20260507024224 | 58 | 295 | 0.0 | 0.0 | 0.00 | 0.00 | 0.00 | 91 | 1011.9 |
| 20260507023720 | 58 | 266 | 0.0 | 0.0 | 0.00 | 0.00 | 0.00 | 91 | 1011.8 |
| 20260507023217 | 58 | 237 | 0.9 | 1.7 | 0.00 | 0.00 | 0.00 | 91 | 1011.5 |
| 20260507022714 | 58 | 85 | 1.7 | 2.6 | 0.00 | 0.00 | 0.00 | 90 | 1011.5 |
| 20260507022210 | 58 | 279 | 0.0 | 0.0 | 0.00 | 0.00 | 0.00 | 90 | 1011.5 |
| 20260507021706 | 58 | 185 | 1.7 | 1.7 | 0.00 | 0.00 | 0.00 | 90 | 1011.7 |
| 20260507021201 | 59 | 165 | 1.7 | 2.6 | 0.00 | 0.00 | 0.00 | 89 | 1011.6 |
| 20260507020701 | 59 | 130 | 1.7 | 2.6 | 0.00 | 0.00 | 0.00 | 89 | 1011.7 |
| 20260507020156 | 59 | 129 | 4.3 | 6.1 | 0.00 | 0.00 | 0.00 | 88 | 1011.6 |
| 20260507015654 | 59 | 168 | 2.6 | 3.5 | 0.00 | 0.00 | 0.00 | 87 | 1011.5 |
| 20260507015151 | 59 | 200 | 3.5 | 6.1 | 0.00 | 0.00 | 0.00 | 86 | 1011.8 |
| 20260507014648 | 59 | 170 | 2.6 | 3.5 | 0.00 | 0.00 | 0.00 | 86 | 1011.8 |
| 20260507014144 | 59 | 185 | 1.7 | 1.7 | 0.00 | 0.00 | 0.00 | 85 | 1011.7 |
| 20260507013641 | 59 | 218 | 5.2 | 8.7 | 0.00 | 0.00 | 0.00 | 84 | 1011.7 |
| 20260507013138 | 59 | 159 | 0.9 | 1.7 | 0.00 | 0.00 | 0.00 | 84 | 1011.7 |
| 20260507012636 | 60 | 151 | 3.5 | 5.2 | 0.00 | 0.00 | 0.00 | 83 | 1011.7 |
| 20260507012130 | 60 | 167 | 1.7 | 2.6 | 0.00 | 0.00 | 0.00 | 83 | 1011.4 |
| 20260507011629 | 60 | 206 | 4.3 | 7.0 | 0.00 | 0.00 | 0.00 | 82 | 1011.4 |
| 20260507011125 | 60 | 142 | 1.7 | 2.6 | 0.00 | 0.00 | 0.00 | 82 | 1011.5 |
| 20260507010620 | 60 | 142 | 1.7 | 2.6 | 0.00 | 0.00 | 0.00 | 82 | 1011.5 |
| 20260507010116 | 60 | 177 | 4.3 | 6.1 | 0.00 | 0.00 | 0.00 | 81 | 1011.4 |
| 20260507005614 | 60 | 231 | 1.7 | 2.6 | 0.00 | 0.00 | 0.00 | 80 | 1011.4 |
| 20260507005109 | 60 | 163 | 3.5 | 5.2 | 0.00 | 0.00 | 0.00 | 81 | 1011.6 |
| 20260507004607 | 60 | 219 | 3.5 | 5.2 | 0.00 | 0.00 | 0.00 | 80 | 1011.4 |
| 20260507004104 | 60 | 220 | 1.7 | 3.5 | 0.00 | 0.00 | 0.00 | 80 | 1011.6 |
| 20260507003600 | 60 | 148 | 4.3 | 7.0 | 0.00 | 0.00 | 0.00 | 80 | 1011.6 |
| 20260507003055 | 60 | 194 | 2.6 | 5.2 | 0.00 | 0.00 | 0.00 | 79 | 1011.8 |
| 20260507002552 | 60 | 210 | 3.5 | 5.2 | 0.00 | 0.00 | 0.00 | 78 | 1011.7 |
| 20260507002048 | 60 | 235 | 5.2 | 8.7 | 0.00 | 0.00 | 0.00 | 78 | 1011.7 |
| 20260507001544 | 60 | 213 | 2.6 | 3.5 | 0.00 | 0.00 | 0.00 | 77 | 1011.8 |
| 20260507001042 | 60 | 198 | 3.5 | 5.2 | 0.00 | 0.00 | 0.00 | 77 | 1011.8 |
| 20260507000538 | 60 | 223 | 4.3 | 6.1 | 0.00 | 0.00 | 0.00 | 78 | 1011.8 |
| 20260507000033 | 60 | 223 | 5.2 | 6.1 | 0.00 | 0.00 | 0.00 | 78 | 1011.7 |
| 20260506235531 | 60 | 224 | 3.5 | 5.2 | 0.00 | 0.00 | 0.00 | 79 | 1011.8 |
| 20260506235027 | 60 | 170 | 5.2 | 7.0 | 0.00 | 0.00 | 0.00 | 79 | 1011.7 |
| 20260506234525 | 60 | 193 | 2.6 | 6.1 | 0.00 | 0.00 | 0.00 | 79 | 1012.2 |
| 20260506234022 | 60 | 165 | 7.8 | 9.6 | 0.00 | 0.00 | 0.00 | 79 | 1012.1 |
| 20260506233518 | 60 | 152 | 8.7 | 12.2 | 0.00 | 0.00 | 0.00 | 78 | 1012.1 |
| 20260506233015 | 60 | 134 | 7.8 | 12.2 | 0.00 | 0.00 | 0.00 | 78 | 1011.9 |
| 20260506232511 | 60 | 84 | 7.0 | 8.7 | 0.00 | 0.00 | 0.00 | 79 | 1012.3 |
| 20260506232007 | 60 | 139 | 3.5 | 3.5 | 0.00 | 0.00 | 0.00 | 79 | 1012.5 |
| 20260506231505 | 60 | 209 | 3.5 | 6.1 | 0.00 | 0.00 | 0.00 | 79 | 1012.2 |
| 20260506231002 | 60 | 194 | 5.2 | 7.8 | 0.00 | 0.00 | 0.00 | 79 | 1012.2 |
| 20260506230458 | 60 | 200 | 7.0 | 8.7 | 0.00 | 0.00 | 0.00 | 79 | 1012.2 |
| 20260506225955 | 60 | 171 | 4.3 | 9.6 | 0.00 | 0.39 | 0.39 | 78 | 1012.1 |
| 20260506225452 | 60 | 155 | 4.3 | 7.8 | 0.00 | 0.39 | 0.39 | 78 | 1012.2 |
| 20260506224949 | 60 | 226 | 2.6 | 6.1 | 0.00 | 0.39 | 0.39 | 78 | 1012.1 |
| 20260506224446 | 60 | 65 | 4.3 | 6.1 | 0.00 | 0.39 | 0.39 | 79 | 1012.2 |
| 20260506223942 | 60 | 155 | 4.3 | 8.7 | 0.00 | 0.39 | 0.39 | 80 | 1012.1 |
| 20260506223438 | 60 | 110 | 3.5 | 5.2 | 0.00 | 0.39 | 0.39 | 80 | 1012.3 |
| 20260506222936 | 60 | 187 | 8.7 | 11.3 | 0.00 | 0.39 | 0.39 | 79 | 1012.1 |
| 20260506222432 | 60 | 163 | 7.0 | 7.8 | 0.00 | 0.39 | 0.39 | 79 | 1012.2 |
| 20260506221929 | 60 | 170 | 5.2 | 7.8 | 0.00 | 0.39 | 0.39 | 79 | 1012.2 |
| 20260506221426 | 60 | 151 | 4.3 | 6.1 | 0.00 | 0.39 | 0.39 | 78 | 1012.2 |
| 20260506220924 | 60 | 111 | 4.3 | 6.1 | 0.00 | 0.39 | 0.39 | 78 | 1012.1 |
| 20260506220419 | 60 | 149 | 2.6 | 3.5 | 0.00 | 0.39 | 0.39 | 78 | 1012.1 |
| 20260506215916 | 60 | 150 | 4.3 | 7.0 | 0.00 | 0.39 | 0.39 | 78 | 1011.9 |
| 20260506215412 | 60 | 138 | 5.2 | 8.7 | 0.00 | 0.39 | 0.39 | 77 | 1011.9 |
| 20260506214908 | 60 | 179 | 7.0 | 11.3 | 0.00 | 0.39 | 0.39 | 76 | 1011.9 |
| 20260506214405 | 60 | 180 | 5.2 | 9.6 | 0.00 | 0.39 | 0.39 | 78 | 1012.1 |
| 20260506213903 | 60 | 158 | 4.3 | 7.8 | 0.00 | 0.39 | 0.39 | 80 | 1012.1 |
| 20260506213400 | 60 | 111 | 5.2 | 7.8 | 0.00 | 0.39 | 0.39 | 79 | 1011.9 |
| 20260506212857 | 60 | 212 | 7.8 | 9.6 | 0.00 | 0.39 | 0.39 | 80 | 1012.1 |
| 20260506212353 | 60 | 208 | 7.0 | 8.7 | 0.00 | 0.39 | 0.39 | 80 | 1011.7 |
| 20260506211848 | 60 | 163 | 4.3 | 6.1 | 0.00 | 0.39 | 0.39 | 80 | 1011.9 |
| 20260506211344 | 60 | 197 | 4.3 | 5.2 | 0.00 | 0.39 | 0.39 | 81 | 1011.8 |
| 20260506210842 | 59 | 130 | 5.2 | 7.0 | 0.00 | 0.39 | 0.39 | 81 | 1011.9 |
| 20260506210338 | 59 | 121 | 7.8 | 9.6 | 0.00 | 0.39 | 0.39 | 82 | 1011.7 |
| 20260506205836 | 59 | 135 | 4.3 | 6.1 | 0.00 | 0.39 | 0.39 | 82 | 1011.7 |
| 20260506205331 | 59 | 188 | 4.3 | 9.6 | 0.00 | 0.39 | 0.39 | 82 | 1011.7 |
| 20260506204828 | 59 | 189 | 6.1 | 8.7 | 0.00 | 0.39 | 0.39 | 83 | 1011.8 |
| 20260506204326 | 59 | 185 | 5.2 | 12.2 | 0.00 | 0.39 | 0.39 | 82 | 1011.5 |
| 20260506203823 | 59 | 127 | 6.1 | 9.6 | 0.00 | 0.39 | 0.39 | 82 | 1011.6 |
| 20260506203320 | 59 | 170 | 7.0 | 12.2 | 0.00 | 0.39 | 0.39 | 83 | 1011.7 |
| 20260506202817 | 60 | 197 | 9.6 | 12.2 | 0.00 | 0.39 | 0.39 | 82 | 1011.7 |
| 20260506202314 | 59 | 193 | 9.6 | 11.3 | 0.00 | 0.39 | 0.39 | 82 | 1011.6 |
| 20260506201810 | 60 | 76 | 3.5 | 3.5 | 0.00 | 0.39 | 0.39 | 83 | 1011.7 |
| 20260506201308 | 60 | 151 | 6.1 | 9.6 | 0.00 | 0.39 | 0.39 | 82 | 1011.5 |
| 20260506200805 | 60 | 135 | 7.8 | 13.9 | 0.00 | 0.39 | 0.39 | 82 | 1011.4 |
| 20260506200301 | 60 | 175 | 4.3 | 7.0 | 0.00 | 0.39 | 0.39 | 82 | 1011.3 |
| 20260506195757 | 60 | 160 | 7.8 | 13.9 | 0.00 | 0.39 | 0.39 | 82 | 1011.6 |
| 20260506195254 | 60 | 154 | 5.2 | 8.7 | 0.00 | 0.39 | 0.39 | 83 | 1011.4 |
| 20260506194751 | 60 | 181 | 7.8 | 9.6 | 0.00 | 0.39 | 0.39 | 83 | 1011.1 |
| 20260506194247 | 60 | 71 | 5.2 | 7.0 | 0.00 | 0.39 | 0.39 | 83 | 1011.3 |
| 20260506193746 | 60 | 187 | 5.2 | 7.0 | 0.00 | 0.39 | 0.39 | 84 | 1011.2 |
| 20260506193242 | 60 | 203 | 5.2 | 7.8 | 0.00 | 0.39 | 0.39 | 84 | 1011.1 |
| 20260506192738 | 60 | 171 | 7.0 | 12.2 | 0.00 | 0.39 | 0.39 | 84 | 1011.2 |
| 20260506192235 | 60 | 72 | 8.7 | 13.0 | 0.00 | 0.39 | 0.39 | 85 | 1011.2 |